Location: Herstmonceux
(50.8705°N, 0.3453°E)
Time: 09:09:10
(UTC+01:00)

ISS - Visible Passes

Search period start: 20 April 2024 00:00
Search period end: 30 April 2024 00:00
Orbit: 412 x 418 km, 51.6° (Epoch: 20 April)

Date Brightness Start Highest point End Pass type
(mag) Time Alt. Az. Time Alt. Az. Time Alt. Az.
24 Apr -1.8 04:30:03 11° S 04:32:25 20° SE 04:34:55 10° E visible
25 Apr -1.4 03:42:52 13° SSE 03:43:35 13° SE 03:45:16 10° ESE visible
26 Apr -2.9 04:28:26 16° SW 04:30:43 37° SSE 04:33:49 10° E visible
27 Apr -2.4 03:41:03 24° SSE 03:41:42 26° SSE 03:44:32 10° E visible
28 Apr -1.5 02:53:34 16° ESE 02:53:34 16° ESE 02:55:01 10° E visible
28 Apr -3.7 04:26:24 16° WSW 04:28:56 65° SSE 04:32:14 10° ENE visible
29 Apr -3.4 03:38:51 36° SSW 03:39:44 48° SSE 03:42:58 10° E visible
